Location: Noverd
(38.0910°N, 121.6877°W)
Time: 14:48:40
(UTC+00:00)

Envisat - Pass Details

Date: 20 April 2026
Orbit: 761 x 762 km, 98.4° (Epoch: 15 May)

Event Time Altitude Azimuth Distance (km) Brightness Sun altitude
Rises 11:30:52 0° 2° (N) 3,230 6.8 -21.0°
Reaches altitude 10° 11:33:22 10° 352° (N) 2,300 5.8 -20.6°
Maximum altitude 11:37:48 32° 291° (WNW) 1,297 3.9 -19.8°
Enters shadow 11:38:24 31° 277° (W) 1,322 3.8 -19.7°
